Tracking 17150 objects as of 4-August-2015
HD Live streaming from Space Station

RUBIN 2

Track RUBIN 2 now!
10-day predictions
RUBIN 2 is classified as:


NORAD ID: 27605
Int'l Code: 2002-058A
Perigee: 595.1 km
Apogee: 712.1 km
Inclination: 64.6 °
Period: 97.7 minutes
Semi major axis: 7024 km
RCS: 0.234 m2 (medium)
Launch date: December 20, 2002
Source: Germany (GER)
Your satellite tracking list
Your tracking list is empty





NASA's NSSDC Master Catalog

Two Line Element Set (TLE):
1 27605U 02058A   15215.57504115  .00000134  00000-0  40135-4 0  9992
2 27605 064.5553 035.1891 0083277 279.3281 141.7556 14.74575489678673

Source of the keplerian elements: AFSPC

N2YO: 383